Regional Weather Roundup
Issued by NWS

Home | Current Version | Previous Version | Graphics & Text | Print | Product List | Glossary On
Versions: 1 2 3 4 5 6 7 8 9 10 11 12 13 14 15 16 17 18 19 20 21 22 23 24 25 26 27 28 29 30 31 32 33 34 35 36 37 38 39 40 41 42 43 44 45 46 47 48 49 50
000
ASUS43 KDMX 251108
RWRIA

WEATHER ROUNDUP FOR IOWA
NATIONAL WEATHER SERVICE DES MOINES IA
600 AM CDT THU AUG 25 2016

NOTE: "FAIR" INDICATES FEW OR NO CLOUDS BELOW 12,000 FEET WITH NO
SIGNIFICANT WEATHER AND/OR OBSTRUCTIONS TO VISIBILITY.

* - THESE STATIONS ARE NOT NWS STATIONS...THUS NOT UNDER NWS
QUALITY CONTROL.  THEY ALSO DO NOT REPORT WEATHER SUCH
AS PRECIPITATION OR FOG.

IAZ001>003-012>014-020>022-031>034-043>046-251200-
   NORTHWEST IOWA

CITY           SKY/WX    TMP DP  RH WIND       PRES   REMARKS
CARROLL *      PTCLDY    55  55 100 W5        30.08S
CHEROKEE *     CLOUDY    57  57 100 NE3       30.09S
DENISON *      PTCLDY    55  55 100 CALM      30.07S
LE MARS *      CLOUDY    55  55 100 CALM      30.10S
ORANGE CITY *  PTCLDY    57  55  94 NW3       30.09F
SHELDON *      PTCLDY    54  54 100 CALM      30.08S
SIOUX CITY     CLOUDY    57  55  93 NW3       30.09S
SPENCER        CLOUDY    57  54  89 NW3       30.09S
STORM LAKE *   CLEAR     59  55  88 N8        30.09S
$$

IAZ055>058-069>071-079>083-090>094-251200-
   SOUTHWEST IOWA

CITY           SKY/WX    TMP DP  RH WIND       PRES   REMARKS
ATLANTIC *     CLEAR     59  57  94 CALM      30.09R
AUDUBON *      CLEAR     57  54  88 CALM      30.10R
CLARINDA *       N/A     66  64  94 MISG      30.08S
COUNCIL BLFS * CLEAR     59  59 100 N8        30.09R
CRESTON *      CLOUDY    66  63  88 N8        30.09R
HARLAN  *      CLEAR     55  55 100 CALM      30.12S
LAMONI         MOCLDY    66  66 100 N7        30.06R
RED OAK *      CLOUDY    61  61 100 NE3       30.07F
SHENANDOAH *   CLOUDY    63 N/A N/A N5        30.07S
$$

IAZ047>049-059>061-072>074-084-251200-
   CENTRAL IOWA

CITY           SKY/WX    TMP DP  RH WIND       PRES   REMARKS
AMES           CLOUDY    64  63  96 NW3       30.07R
ANKENY *         N/A    N/A N/A N/A MISG        N/A
BOONE *        CLEAR     61  59  94 N6        30.06F
CHARITON *       N/A     66  66 100 MISG      30.05F
DES MOINES     MOCLDY    68  63  84 N7        30.05F
GRINNELL*      CLOUDY    65  61  89 N3        30.06F
KNOXVILLE *    CLOUDY    68  64  88 N5        30.05R
MARSHALLTOWN   CLOUDY    64  62  93 N5        30.05S
NEWTON *       CLOUDY    64  63  94 N3        30.05F
PELLA *        PTCLDY    66  64  94 CALM      30.06F
PERRY *          N/A     62  61  98 NW3       30.07F
$$

IAZ004>006-015-016-023>025-035-036-251200-
   NORTH CENTRAL IOWA

CITY           SKY/WX    TMP DP  RH WIND       PRES   REMARKS
ALGONA *       CLOUDY    59  55  88 NW6       30.08S
ESTHERVILLE    CLEAR     57  56  96 NW7       30.08R
FORT DODGE *   CLEAR     59  55  88 CALM      30.08S
MASON CITY     CLOUDY    60  58  92 W3        30.08S
FOREST CITY *    N/A    N/A N/A N/A MISG        N/A
WEBSTER CITY * CLEAR     59  57  94 CALM      30.06S
IOWA FALLS *   CLOUDY    64  60  88 NW5       30.08R
$$

IAZ007>011-017>019-026>030-037>042-050>054-066-251200-
   NORTHEAST IOWA

CITY           SKY/WX    TMP DP  RH WIND       PRES   REMARKS
CEDAR RAPIDS   MOCLDY    66  65  96 N5        30.03S
CHARLES CITY * CLOUDY    63  63 100 NW5       30.07R
CLINTON *      MOCLDY    69  65  86 N10       30.01R
DECORAH *      MOCLDY    63  61  94 CALM      30.04S
DUBUQUE        PTCLDY    66  61  84 N12       30.03R
MONTICELLO *   CLOUDY    66  63  88 N5        30.03R
OELWEIN *      MOCLDY    59  59 100 NW6       30.06S
WATERLOO       CLOUDY    63  60  90 W5        30.05R
$$

IAZ064-065-067-068-078-251200-
   EAST CENTRAL IOWA

CITY           SKY/WX    TMP DP  RH WIND       PRES   REMARKS
DAVENPORT      PTCLDY    70  69  97 NW5       30.01R
IOWA CITY      CLOUDY    70  64  81 NW8       30.04R
MT. PLEASANT * DRIZZLE   71  71 100 SW3       30.03S
MUSCATINE *    CLOUDY    72  68  88 CALM      30.02R
QUAD CITIES    CLOUDY    72  70  93 W7        30.00R
$$

IAZ062-063-075>077-085>089-095>099-251200-
   SOUTHEAST IOWA

CITY           SKY/WX    TMP DP  RH WIND       PRES   REMARKS
BURLINGTON     MOCLDY    68  68 100 W5        30.02S
FAIRFIELD *    CLOUDY    68  66  94 N5        30.03S
FORT MADISON * CLOUDY    70  70 100 W3        30.05R
KEOKUK *       CLOUDY    72  70  94 SW9       30.03R
OSKALOOSA *    CLOUDY    67  66  98 N3        30.04F
CENTERVILLE *  CLOUDY    68  66  94 CALM      30.07R
OTTUMWA        CLOUDY    68  67  96 NW6       30.03F
WASHINGTON *   CLOUDY    70  68  94 NW6       30.03S
$$

ABBREVIATIONS USED IN REMARKS
   TC - TEMPERATURES IN CELSIUS
  WCI - WIND CHILL INDEX
   HX - HEAT INDEX
  VSB - VISIBILITY
$$




USA.gov is the U.S. government's official web portal to all federal, state and local government web resources and services.